Time,TemperatureF,DewpointF,PressureIn,WindDirection,WindDirectionDegrees,WindSpeedMPH,WindSpeedGustMPH,Humidity,HourlyPrecipIn,Conditions,Clouds,dailyrainin,SoftwareType,DateUTC
2013-08-22 00:00:00,73.0,45.1,29.62,WSW,247,3.0,10.0,37,0.00,,,0.00,Weather View 32 v70,2013-08-22 04:00:00,
2013-08-22 00:05:00,73.0,37.0,29.62,West,270,2.0,10.0,27,0.00,,,0.00,Weather View 32 v70,2013-08-22 04:05:00,
2013-08-22 00:10:00,72.0,36.1,29.62,West,270,0.0,10.0,27,0.00,,,0.00,Weather View 32 v70,2013-08-22 04:10:00,
2013-08-22 00:15:00,72.0,31.0,29.62,NE,45,2.0,9.0,22,0.00,,,0.00,Weather View 32 v70,2013-08-22 04:15:00,
2013-08-22 00:20:00,72.0,35.2,29.62,NE,45,0.0,9.0,26,0.00,,,0.00,Weather View 32 v70,2013-08-22 04:20:00,
2013-08-22 00:30:00,72.0,14.5,29.62,NE,45,3.0,6.0,11,0.00,,,0.00,Weather View 32 v70,2013-08-22 04:30:00,
2013-08-22 00:35:00,71.0,0.4,29.62,NE,45,0.0,6.0,6,0.00,,,0.00,Weather View 32 v70,2013-08-22 04:35:00,
2013-08-22 00:40:00,71.0,-21.7,29.62,NE,45,0.0,6.0,2,0.00,,,0.00,Weather View 32 v70,2013-08-22 04:40:00,
2013-08-22 00:45:00,71.0,13.7,29.62,NE,45,0.0,6.0,11,0.00,,,0.00,Weather View 32 v70,2013-08-22 04:45:00,
2013-08-22 00:55:00,71.0,13.7,29.63,NE,45,0.0,5.0,11,0.00,,,0.00,Weather View 32 v70,2013-08-22 04:55:00,
2013-08-22 01:05:00,71.0,-34.5,29.63,NE,45,1.0,4.0,1,0.00,,,0.00,Weather View 32 v70,2013-08-22 05:05:00,
2013-08-22 01:10:00,71.0,-34.5,29.63,NE,45,1.0,4.0,1,0.00,,,0.00,Weather View 32 v70,2013-08-22 05:10:00,
2013-08-22 01:19:00,71.0,-34.5,29.63,NE,45,0.0,4.0,1,0.00,,,0.00,Weather View 32 v70,2013-08-22 05:19:00,
2013-08-22 01:25:00,71.0,0.4,29.63,West,270,3.0,6.0,6,0.00,,,0.00,Weather View 32 v70,2013-08-22 05:25:00,
2013-08-22 01:30:00,71.0,39.6,29.62,NW,315,3.0,6.0,32,0.00,,,0.00,Weather View 32 v70,2013-08-22 05:30:00,
2013-08-22 01:35:00,71.0,39.6,29.63,NE,45,0.0,6.0,32,0.00,,,0.00,Weather View 32 v70,2013-08-22 05:35:00,
2013-08-22 01:45:00,71.0,51.4,29.63,ENE,67,4.0,9.0,50,0.00,,,0.00,Weather View 32 v70,2013-08-22 05:45:00,
2013-08-22 01:50:00,71.0,55.4,29.63,East,90,1.0,9.0,58,0.00,,,0.00,Weather View 32 v70,2013-08-22 05:50:00,
2013-08-22 02:00:00,71.0,59.0,29.63,NE,45,0.0,9.0,66,0.00,,,0.00,Weather View 32 v70,2013-08-22 06:00:00,
2013-08-22 02:05:00,71.0,62.6,29.63,SE,135,5.0,9.0,75,0.00,,,0.00,Weather View 32 v70,2013-08-22 06:05:00,
2013-08-22 02:15:00,71.0,64.5,29.63,WSW,247,3.0,9.0,80,0.00,,,0.00,Weather View 32 v70,2013-08-22 06:15:00,
2013-08-22 02:20:00,71.0,64.9,29.63,WSW,247,0.0,9.0,81,0.00,,,0.00,Weather View 32 v70,2013-08-22 06:20:00,
2013-08-22 02:30:00,71.0,64.5,29.63,NE,45,1.0,9.0,80,0.00,,,0.00,Weather View 32 v70,2013-08-22 06:30:00,
2013-08-22 02:35:00,71.0,64.5,29.62,ENE,67,0.0,9.0,80,0.00,,,0.00,Weather View 32 v70,2013-08-22 06:35:00,
2013-08-22 02:40:00,71.0,64.1,29.63,ENE,67,0.0,8.0,79,0.00,,,0.00,Weather View 32 v70,2013-08-22 06:40:00,
2013-08-22 02:50:00,70.0,60.9,29.62,ENE,67,0.0,8.0,73,0.00,,,0.00,Weather View 32 v70,2013-08-22 06:50:00,
2013-08-22 03:00:00,70.0,58.9,29.61,NE,45,2.0,8.0,68,0.00,,,0.00,Weather View 32 v70,2013-08-22 07:00:00,
2013-08-22 03:05:00,70.0,58.9,29.61,NE,45,2.0,8.0,68,0.00,,,0.00,Weather View 32 v70,2013-08-22 07:05:00,
2013-08-22 03:15:00,70.0,62.1,29.61,South,180,2.0,6.0,76,0.00,,,0.00,Weather View 32 v70,2013-08-22 07:15:00,
2013-08-22 03:20:00,70.0,63.5,29.61,East,90,1.0,6.0,80,0.00,,,0.00,Weather View 32 v70,2013-08-22 07:20:00,
2013-08-22 03:30:00,71.0,64.5,29.61,SSE,157,0.0,6.0,80,0.00,,,0.00,Weather View 32 v70,2013-08-22 07:30:00,
2013-08-22 03:35:00,71.0,63.8,29.61,NNE,22,1.0,6.0,78,0.00,,,0.00,Weather View 32 v70,2013-08-22 07:35:00,
2013-08-22 03:45:00,70.0,61.3,29.60,NNE,22,0.0,6.0,74,0.00,,,0.00,Weather View 32 v70,2013-08-22 07:45:00,
2013-08-22 03:55:00,70.0,61.7,29.59,East,90,0.0,6.0,75,0.00,,,0.00,Weather View 32 v70,2013-08-22 07:55:00,
2013-08-22 04:00:00,70.0,62.8,29.59,SE,135,5.0,6.0,78,0.00,,,0.00,Weather View 32 v70,2013-08-22 08:00:00,
2013-08-22 04:10:00,70.0,60.9,29.59,South,180,2.0,7.0,73,0.00,,,0.00,Weather View 32 v70,2013-08-22 08:10:00,
2013-08-22 04:15:00,70.0,58.9,29.59,West,270,3.0,7.0,68,0.00,,,0.00,Weather View 32 v70,2013-08-22 08:15:00,
2013-08-22 04:21:00,70.0,54.5,29.59,North,360,3.0,7.0,58,0.00,,,0.00,Weather View 32 v70,2013-08-22 08:21:00,
2013-08-22 04:30:00,69.0,49.5,29.59,NE,45,5.0,7.0,50,0.00,,,0.00,Weather View 32 v70,2013-08-22 08:30:00,
2013-08-22 04:35:00,68.0,45.8,29.58,NE,45,5.0,7.0,45,0.00,,,0.00,Weather View 32 v70,2013-08-22 08:35:00,
2013-08-22 04:40:00,68.0,44.6,29.58,North,360,3.0,7.0,43,0.00,,,0.00,Weather View 32 v70,2013-08-22 08:40:00,
2013-08-22 04:50:00,68.0,41.4,29.58,NNE,22,4.0,7.0,38,0.00,,,0.00,Weather View 32 v70,2013-08-22 08:50:00,
2013-08-22 05:00:00,68.0,37.8,29.58,NW,315,3.0,7.0,33,0.00,,,0.00,Weather View 32 v70,2013-08-22 09:00:00,
2013-08-22 05:10:00,68.0,43.4,29.57,SW,225,2.0,7.0,41,0.00,,,0.00,Weather View 32 v70,2013-08-22 09:10:00,
2013-08-22 05:15:00,67.0,39.8,29.57,SW,225,0.0,7.0,37,0.00,,,0.00,Weather View 32 v70,2013-08-22 09:15:00,
2013-08-22 05:22:00,67.0,33.6,29.57,SSW,202,0.0,7.0,29,0.00,,,0.00,Weather View 32 v70,2013-08-22 09:22:00,
2013-08-22 05:30:00,67.0,12.6,29.57,ESE,112,0.0,7.0,12,0.00,,,0.00,Weather View 32 v70,2013-08-22 09:30:00,
2013-08-22 05:35:00,67.0,0.8,29.57,ESE,112,0.0,7.0,7,0.00,,,0.00,Weather View 32 v70,2013-08-22 09:35:00,
2013-08-22 05:45:00,67.0,-36.9,29.57,ENE,67,6.0,7.0,1,0.00,,,0.00,Weather View 32 v70,2013-08-22 09:45:00,
2013-08-22 05:50:00,67.0,-36.9,29.57,NE,45,4.0,8.0,1,0.00,,,0.00,Weather View 32 v70,2013-08-22 09:50:00,
2013-08-22 06:00:00,67.0,-36.9,29.58,North,360,3.0,8.0,1,0.00,,,0.00,Weather View 32 v70,2013-08-22 10:00:00,
2013-08-22 06:10:00,68.0,-36.3,29.59,South,180,0.0,8.0,1,0.00,,,0.00,Weather View 32 v70,2013-08-22 10:10:00,
2013-08-22 06:15:00,68.0,-36.3,29.59,NE,45,5.0,8.0,1,0.00,,,0.00,Weather View 32 v70,2013-08-22 10:15:00,
2013-08-22 06:22:00,68.0,-36.3,29.59,NE,45,6.0,8.0,1,0.00,,,0.00,Weather View 32 v70,2013-08-22 10:22:00,
2013-08-22 06:30:00,68.0,-36.3,29.59,WNW,292,5.0,8.0,1,0.00,,,0.00,Weather View 32 v70,2013-08-22 10:30:00,
2013-08-22 06:40:00,69.0,17.7,29.59,North,360,0.0,8.0,14,0.00,,,0.00,Weather View 32 v70,2013-08-22 10:40:00,
2013-08-22 06:45:00,69.0,19.3,29.59,ENE,67,3.0,8.0,15,0.00,,,0.00,Weather View 32 v70,2013-08-22 10:45:00,
2013-08-22 08:30:00,69.0,41.6,29.61,East,90,1.0,17.0,37,0.01,,,0.01,Weather View 32 v70,2013-08-22 12:30:00,
2013-08-22 08:40:00,69.0,34.5,29.61,SW,225,3.0,17.0,28,0.01,,,0.01,Weather View 32 v70,2013-08-22 12:40:00,
2013-08-22 08:45:00,69.0,20.8,29.61,SSW,202,0.0,17.0,16,0.01,,,0.01,Weather View 32 v70,2013-08-22 12:45:00,
2013-08-22 08:55:00,69.0,-35.7,29.61,ENE,67,3.0,17.0,1,0.01,,,0.01,Weather View 32 v70,2013-08-22 12:55:00,
2013-08-22 09:05:00,69.0,-35.7,29.61,NW,315,0.0,17.0,1,0.01,,,0.01,Weather View 32 v70,2013-08-22 13:05:00,
2013-08-22 09:10:00,69.0,-35.7,29.61,NW,315,3.0,11.0,1,0.01,,,0.01,Weather View 32 v70,2013-08-22 13:10:00,
2013-08-22 09:15:00,69.0,-35.7,29.61,NNE,22,1.0,11.0,1,0.01,,,0.01,Weather View 32 v70,2013-08-22 13:15:00,
2013-08-22 09:20:00,69.0,-35.7,29.61,SE,135,1.0,10.0,1,0.01,,,0.01,Weather View 32 v70,2013-08-22 13:20:00,
2013-08-22 09:30:00,69.0,-35.7,29.60,SE,135,1.0,10.0,1,0.00,,,0.01,Weather View 32 v70,2013-08-22 13:30:00,
2013-08-22 09:40:00,70.0,-35.1,29.60,SSW,202,1.0,6.0,1,0.00,,,0.01,Weather View 32 v70,2013-08-22 13:40:00,
2013-08-22 09:50:00,70.0,-0.3,29.60,ENE,67,2.0,5.0,6,0.00,,,0.01,Weather View 32 v70,2013-08-22 13:50:00,
2013-08-22 10:00:00,71.0,32.3,29.61,NNE,22,5.0,6.0,24,0.00,,,0.01,Weather View 32 v70,2013-08-22 14:00:00,
2013-08-22 10:05:00,71.0,32.3,29.61,NE,45,0.0,6.0,24,0.00,,,0.01,Weather View 32 v70,2013-08-22 14:05:00,
2013-08-22 10:15:00,71.0,49.1,29.61,NNE,22,6.0,10.0,46,0.00,,,0.01,Weather View 32 v70,2013-08-22 14:15:00,
2013-08-22 10:24:00,72.0,44.9,29.61,NE,45,1.0,10.0,38,0.00,,,0.01,Weather View 32 v70,2013-08-22 14:24:00,
2013-08-22 10:30:00,73.0,52.7,29.61,SSE,157,0.0,10.0,49,0.00,,,0.01,Weather View 32 v70,2013-08-22 14:30:00,
2013-08-22 10:35:00,73.0,58.2,29.61,South,180,2.0,10.0,60,0.00,,,0.01,Weather View 32 v70,2013-08-22 14:35:00,
2013-08-22 10:45:00,74.0,68.5,29.61,SW,225,6.0,10.0,83,0.00,,,0.01,Weather View 32 v70,2013-08-22 14:45:00,
2013-08-22 10:50:00,74.0,68.5,29.61,SW,225,8.0,10.0,83,0.00,,,0.01,Weather View 32 v70,2013-08-22 14:50:00,
2013-08-22 11:00:00,74.0,68.5,29.61,South,180,0.0,12.0,83,0.00,,,0.01,Weather View 32 v70,2013-08-22 15:00:00,
2013-08-22 11:10:00,76.0,69.7,29.61,South,180,1.0,12.0,81,0.00,,,0.01,Weather View 32 v70,2013-08-22 15:10:00,
2013-08-22 11:20:00,77.0,68.0,29.61,SSW,202,4.0,12.0,74,0.01,,,0.02,Weather View 32 v70,2013-08-22 15:20:00,
2013-08-22 11:25:00,77.0,69.6,29.61,NW,315,4.0,12.0,78,0.01,,,0.02,Weather View 32 v70,2013-08-22 15:25:00,
2013-08-22 11:35:00,78.0,68.6,29.61,WSW,247,5.0,12.0,73,0.01,,,0.02,Weather View 32 v70,2013-08-22 15:35:00,
2013-08-22 11:45:00,78.0,69.0,29.61,SSE,157,0.0,12.0,74,0.01,,,0.02,Weather View 32 v70,2013-08-22 15:45:00,
2013-08-22 11:55:00,79.0,69.2,29.61,SSE,157,6.0,9.0,72,0.01,,,0.02,Weather View 32 v70,2013-08-22 15:55:00,
2013-08-22 12:00:00,79.0,70.0,29.62,SW,225,8.0,10.0,74,0.01,,,0.02,Weather View 32 v70,2013-08-22 16:00:00,
2013-08-22 12:10:00,78.0,69.4,29.61,SW,225,6.0,15.0,75,0.01,,,0.02,Weather View 32 v70,2013-08-22 16:10:00,
2013-08-22 12:20:00,78.0,69.8,29.61,SW,225,0.0,15.0,76,0.00,,,0.02,Weather View 32 v70,2013-08-22 16:20:00,
2013-08-22 12:25:00,78.0,68.2,29.61,SSE,157,9.0,15.0,72,0.00,,,0.02,Weather View 32 v70,2013-08-22 16:25:00,
2013-08-22 12:35:00,77.0,68.0,29.60,WSW,247,6.0,16.0,74,0.00,,,0.02,Weather View 32 v70,2013-08-22 16:35:00,
2013-08-22 12:40:00,77.0,67.6,29.60,West,270,8.0,16.0,73,0.00,,,0.02,Weather View 32 v70,2013-08-22 16:40:00,
2013-08-22 12:45:00,77.0,68.0,29.60,SW,225,10.0,16.0,74,0.00,,,0.02,Weather View 32 v70,2013-08-22 16:45:00,
2013-08-22 12:55:00,77.0,68.4,29.59,South,180,10.0,16.0,75,0.00,,,0.02,Weather View 32 v70,2013-08-22 16:55:00,
2013-08-22 13:05:00,77.0,68.8,29.58,SE,135,9.0,16.0,76,0.00,,,0.02,Weather View 32 v70,2013-08-22 17:05:00,
2013-08-22 13:15:00,79.0,68.8,29.58,WSW,247,9.0,16.0,71,0.00,,,0.02,Weather View 32 v70,2013-08-22 17:15:00,
2013-08-22 13:20:00,80.0,69.3,29.58,WNW,292,7.0,16.0,70,0.00,,,0.02,Weather View 32 v70,2013-08-22 17:20:00,
2013-08-22 13:26:00,80.0,68.9,29.58,SW,225,12.0,16.0,69,0.00,,,0.02,Weather View 32 v70,2013-08-22 17:26:00,
2013-08-22 13:35:00,79.0,68.8,29.58,SW,225,11.0,17.0,71,0.00,,,0.02,Weather View 32 v70,2013-08-22 17:35:00,
2013-08-22 13:40:00,79.0,69.2,29.59,SW,225,10.0,17.0,72,0.00,,,0.02,Weather View 32 v70,2013-08-22 17:40:00,
2013-08-22 13:50:00,79.0,67.9,29.58,SW,225,15.0,19.0,69,0.00,,,0.02,Weather View 32 v70,2013-08-22 17:50:00,
2013-08-22 14:00:00,79.0,67.5,29.57,SW,225,20.0,22.0,68,0.00,,,0.02,Weather View 32 v70,2013-08-22 18:00:00,
2013-08-22 14:05:00,79.0,67.9,29.57,SSW,202,15.0,22.0,69,0.00,,,0.02,Weather View 32 v70,2013-08-22 18:05:00,
2013-08-22 14:15:00,80.0,68.4,29.56,WSW,247,12.0,22.0,68,0.00,,,0.02,Weather View 32 v70,2013-08-22 18:15:00,
2013-08-22 14:25:00,80.0,68.4,29.56,SSW,202,15.0,22.0,68,0.00,,,0.02,Weather View 32 v70,2013-08-22 18:25:00,
2013-08-22 14:35:00,81.0,68.5,29.56,SW,225,6.0,22.0,66,0.00,,,0.02,Weather View 32 v70,2013-08-22 18:35:00,
2013-08-22 14:45:00,82.0,71.2,29.55,SW,225,16.0,22.0,70,0.00,,,0.02,Weather View 32 v70,2013-08-22 18:45:00,
2013-08-22 14:50:00,81.0,68.5,29.55,South,180,12.0,22.0,66,0.00,,,0.02,Weather View 32 v70,2013-08-22 18:50:00,
2013-08-22 15:00:00,80.0,68.9,29.55,SW,225,7.0,21.0,69,0.00,,,0.02,Weather View 32 v70,2013-08-22 19:00:00,
2013-08-22 15:10:00,81.0,69.0,29.55,SSW,202,16.0,21.0,67,0.00,,,0.02,Weather View 32 v70,2013-08-22 19:10:00,
2013-08-22 15:20:00,81.0,68.5,29.55,SSW,202,11.0,19.0,66,0.00,,,0.02,Weather View 32 v70,2013-08-22 19:20:00,
2013-08-22 15:27:00,81.0,67.2,29.55,SW,225,9.0,19.0,63,0.00,,,0.02,Weather View 32 v70,2013-08-22 19:27:00,
2013-08-22 15:35:00,82.0,68.6,29.54,SW,225,15.0,19.0,64,0.00,,,0.02,Weather View 32 v70,2013-08-22 19:35:00,
2013-08-22 15:45:00,81.0,68.1,29.53,SW,225,7.0,19.0,65,0.00,,,0.02,Weather View 32 v70,2013-08-22 19:45:00,
2013-08-22 15:55:00,81.0,66.7,29.53,WSW,247,7.0,18.0,62,0.00,,,0.02,Weather View 32 v70,2013-08-22 19:55:00,
2013-08-22 16:05:00,81.0,68.1,29.53,WSW,247,10.0,18.0,65,0.00,,,0.02,Weather View 32 v70,2013-08-22 20:05:00,
2013-08-22 16:15:00,81.0,66.7,29.52,SW,225,8.0,17.0,62,0.00,,,0.02,Weather View 32 v70,2013-08-22 20:15:00,
2013-08-22 16:20:00,82.0,67.2,29.52,SW,225,7.0,17.0,61,0.00,,,0.02,Weather View 32 v70,2013-08-22 20:20:00,
2013-08-22 16:27:00,82.0,66.7,29.51,SW,225,12.0,17.0,60,0.00,,,0.02,Weather View 32 v70,2013-08-22 20:27:00,
2013-08-22 16:35:00,82.0,66.7,29.51,WSW,247,9.0,17.0,60,0.00,,,0.02,Weather View 32 v70,2013-08-22 20:35:00,
2013-08-22 16:40:00,82.0,67.2,29.51,SW,225,9.0,16.0,61,0.00,,,0.02,Weather View 32 v70,2013-08-22 20:40:00,
2013-08-22 16:50:00,83.0,67.6,29.51,WSW,247,5.0,16.0,60,0.00,,,0.02,Weather View 32 v70,2013-08-22 20:50:00,
2013-08-22 17:00:00,83.0,67.1,29.51,SSW,202,10.0,16.0,59,0.00,,,0.02,Weather View 32 v70,2013-08-22 21:00:00,
2013-08-22 17:05:00,83.0,67.6,29.51,SSW,202,7.0,16.0,60,0.00,,,0.02,Weather View 32 v70,2013-08-22 21:05:00,
2013-08-22 17:15:00,83.0,66.6,29.51,SW,225,10.0,16.0,58,0.00,,,0.02,Weather View 32 v70,2013-08-22 21:15:00,
2013-08-22 17:25:00,82.0,66.7,29.51,SW,225,8.0,16.0,60,0.00,,,0.02,Weather View 32 v70,2013-08-22 21:25:00,
2013-08-22 17:35:00,83.0,67.1,29.51,South,180,9.0,16.0,59,0.00,,,0.02,Weather View 32 v70,2013-08-22 21:35:00,
2013-08-22 17:45:00,83.0,66.6,29.51,SW,225,12.0,16.0,58,0.00,,,0.02,Weather View 32 v70,2013-08-22 21:45:00,
2013-08-22 17:50:00,83.0,68.1,29.51,SW,225,7.0,16.0,61,0.00,,,0.02,Weather View 32 v70,2013-08-22 21:50:00,
2013-08-22 18:00:00,82.0,67.2,29.51,SW,225,6.0,16.0,61,0.00,,,0.02,Weather View 32 v70,2013-08-22 22:00:00,
2013-08-22 18:05:00,82.0,67.2,29.51,SW,225,6.0,16.0,61,0.00,,,0.02,Weather View 32 v70,2013-08-22 22:05:00,
2013-08-22 18:15:00,83.0,68.1,29.51,SSW,202,5.0,16.0,61,0.00,,,0.02,Weather View 32 v70,2013-08-22 22:15:00,
2013-08-22 18:25:00,83.0,68.1,29.51,SW,225,9.0,13.0,61,0.00,,,0.02,Weather View 32 v70,2013-08-22 22:25:00,
2013-08-22 18:35:00,82.0,67.2,29.50,WSW,247,5.0,12.0,61,0.00,,,0.02,Weather View 32 v70,2013-08-22 22:35:00,
2013-08-22 18:40:00,82.0,67.2,29.50,SSW,202,3.0,12.0,61,0.00,,,0.02,Weather View 32 v70,2013-08-22 22:40:00,
2013-08-22 18:50:00,83.0,69.1,29.50,SSW,202,4.0,12.0,63,0.00,,,0.02,Weather View 32 v70,2013-08-22 22:50:00,
2013-08-22 18:55:00,82.0,68.6,29.50,SSW,202,5.0,11.0,64,0.00,,,0.02,Weather View 32 v70,2013-08-22 22:55:00,
2013-08-22 19:00:00,82.0,70.8,29.49,SSW,202,4.0,11.0,69,0.00,,,0.02,Weather View 32 v70,2013-08-22 23:00:00,
2013-08-22 19:10:00,80.0,70.9,29.49,SW,225,2.0,11.0,74,0.00,,,0.02,Weather View 32 v70,2013-08-22 23:10:00,
2013-08-22 19:20:00,79.0,71.5,29.49,SW,225,1.0,11.0,78,0.00,,,0.02,Weather View 32 v70,2013-08-22 23:20:00,
2013-08-22 19:29:00,78.0,72.0,29.49,SW,225,2.0,11.0,82,0.00,,,0.02,Weather View 32 v70,2013-08-22 23:29:00,
2013-08-22 19:35:00,77.0,70.7,29.49,SW,225,0.0,7.0,81,0.00,,,0.02,Weather View 32 v70,2013-08-22 23:35:00,
2013-08-22 19:40:00,76.0,69.7,29.49,SW,225,0.0,6.0,81,0.00,,,0.02,Weather View 32 v70,2013-08-22 23:40:00,
2013-08-22 19:50:00,75.0,68.7,29.49,SW,225,0.0,6.0,81,0.00,,,0.02,Weather View 32 v70,2013-08-22 23:50:00,
2013-08-22 19:55:00,75.0,69.1,29.50,SW,225,0.0,6.0,82,0.00,,,0.02,Weather View 32 v70,2013-08-22 23:55:00,
2013-08-22 20:05:00,73.0,59.6,29.50,SW,225,0.0,6.0,63,0.00,,,0.02,Weather View 32 v70,2013-08-23 00:05:00,
2013-08-22 20:15:00,73.0,63.4,29.50,SW,225,0.0,4.0,72,0.00,,,0.02,Weather View 32 v70,2013-08-23 00:15:00,
2013-08-22 20:25:00,73.0,52.1,29.51,South,180,3.0,6.0,48,0.00,,,0.02,Weather View 32 v70,2013-08-23 00:25:00,
2013-08-22 20:30:00,73.0,61.8,29.51,SSW,202,8.0,9.0,68,0.00,,,0.02,Weather View 32 v70,2013-08-23 00:30:00,
2013-08-22 20:35:00,74.0,68.1,29.50,SW,225,9.0,12.0,82,0.00,,,0.02,Weather View 32 v70,2013-08-23 00:35:00,
2013-08-22 20:45:00,76.0,67.9,29.50,SSW,202,7.0,12.0,76,0.00,,,0.02,Weather View 32 v70,2013-08-23 00:45:00,
2013-08-22 20:55:00,76.0,67.9,29.50,SSW,202,3.0,12.0,76,0.00,,,0.02,Weather View 32 v70,2013-08-23 00:55:00,
2013-08-22 21:00:00,76.0,69.0,29.50,NNW,337,2.0,12.0,79,0.00,,,0.02,Weather View 32 v70,2013-08-23 01:00:00,
2013-08-22 21:10:00,75.0,68.7,29.51,WNW,292,0.0,12.0,81,0.00,,,0.02,Weather View 32 v70,2013-08-23 01:10:00,
2013-08-22 21:20:00,74.0,67.8,29.51,SW,225,5.0,12.0,81,0.00,,,0.02,Weather View 32 v70,2013-08-23 01:20:00,
2013-08-22 21:30:00,76.0,67.1,29.51,SW,225,8.0,12.0,74,0.00,,,0.02,Weather View 32 v70,2013-08-23 01:30:00,
2013-08-22 21:40:00,76.0,65.9,29.52,SSW,202,11.0,19.0,71,0.00,,,0.02,Weather View 32 v70,2013-08-23 01:40:00,
2013-08-22 21:50:00,76.0,65.5,29.52,WSW,247,10.0,19.0,70,0.00,,,0.02,Weather View 32 v70,2013-08-23 01:50:00,
2013-08-22 22:00:00,76.0,64.6,29.52,WSW,247,10.0,20.0,68,0.00,,,0.02,Weather View 32 v70,2013-08-23 02:00:00,
2013-08-22 22:10:00,76.0,65.1,29.52,SSW,202,11.0,20.0,69,0.00,,,0.02,Weather View 32 v70,2013-08-23 02:10:00,
2013-08-22 22:15:00,76.0,64.6,29.53,SSW,202,9.0,22.0,68,0.00,,,0.02,Weather View 32 v70,2013-08-23 02:15:00,
2013-08-22 22:25:00,76.0,64.2,29.53,SW,225,15.0,22.0,67,0.00,,,0.02,Weather View 32 v70,2013-08-23 02:25:00,
2013-08-22 22:31:00,75.0,62.8,29.53,WSW,247,9.0,22.0,66,0.00,,,0.02,Weather View 32 v70,2013-08-23 02:31:00,
2013-08-22 22:40:00,75.0,62.4,29.53,SSW,202,9.0,22.0,65,0.00,,,0.02,Weather View 32 v70,2013-08-23 02:40:00,
2013-08-22 22:45:00,75.0,62.8,29.53,SSW,202,8.0,22.0,66,0.00,,,0.02,Weather View 32 v70,2013-08-23 02:45:00,
2013-08-22 22:55:00,75.0,63.7,29.53,SW,225,8.0,22.0,68,0.00,,,0.02,Weather View 32 v70,2013-08-23 02:55:00,
2013-08-22 23:00:00,75.0,63.7,29.53,SW,225,6.0,22.0,68,0.00,,,0.02,Weather View 32 v70,2013-08-23 03:00:00,
2013-08-22 23:10:00,75.0,63.7,29.53,SW,225,12.0,22.0,68,0.00,,,0.02,Weather View 32 v70,2013-08-23 03:10:00,
2013-08-22 23:15:00,74.0,62.7,29.53,SSW,202,7.0,20.0,68,0.00,,,0.02,Weather View 32 v70,2013-08-23 03:15:00,
2013-08-22 23:25:00,74.0,63.1,29.53,SW,225,2.0,20.0,69,0.00,,,0.02,Weather View 32 v70,2013-08-23 03:25:00,
2013-08-22 23:31:00,74.0,63.1,29.53,South,180,6.0,16.0,69,0.00,,,0.02,Weather View 32 v70,2013-08-23 03:31:00,
2013-08-22 23:40:00,74.0,63.6,29.53,South,180,0.0,16.0,70,0.00,,,0.02,Weather View 32 v70,2013-08-23 03:40:00,
2013-08-22 23:45:00,74.0,64.8,29.53,North,360,3.0,16.0,73,0.00,,,0.02,Weather View 32 v70,2013-08-23 03:45:00,
2013-08-22 23:55:00,71.0,63.8,29.53,NNE,22,3.0,16.0,78,0.00,,,0.02,Weather View 32 v70,2013-08-23 03:55:00,